STARLINK-33594 (62770 NORAD) Tracking and Keplerian Element Data

This shows tracking and keplerian element data for the satellite.

Feedback or suggestion? Click here.




ElementValue
Catalog62770
NameSTARLINK-33594
Epoch Orbit339
Epoch Day35.25001157
Epoch Year2025
RAAN18.6622
Inclination53.1597
Eccentricity0.0001156
Argument of Perigee71.5993
Mean Anonmoly212.0173
Mean Motion15.78478971
Decay Rate-0.01070737
L11 62770U 25015N 25035.25001157 -.01070737 00000+0 -67205-2 0 9999
L22 62770 53.1597 18.6622 0001156 71.5993 212.0173 15.78478971 3394



Live tracking and technical data element details for STARLINK-33594 (NORAD 62770). STARLINK-33594 can be tracked NOW for your location showing map with azimuth and elevation plus other details from your city location.







IsCatalogInMostPopularTable: catalog: 62770, numindb: 205
Update: records affected: 1



GetName: 62770 STARLINK-33594

Hit Count: updated at: Mon, 17 Nov 2025 18:26:16 GMT